Location: Gwatt
(46.7204°N, 7.6223°E)
Time: 18:58:52
(UTC+00:00)

Courier 1B Rocket - Pass Details

Date: 23 January 2021
Orbit: 920 x 1202 km, 28.3° (Epoch: 05 March)

Event Time Altitude Azimuth Distance (km) Brightness Sun altitude
Rises 08:36:04 0° 237° (WSW) 3,837 8.0 11.8°
Reaches altitude 10° 08:39:45 10° 219° (SW) 2,938 7.7 12.3°
Maximum altitude 08:44:15 18° 180° (S) 2,477 8.0 12.8°
Drops below altitude 10° 08:48:54 10° 142° (SE) 3,055 10.9 13.3°
Sets 08:52:51 0° 124° (SE) 4,054 9.8 13.8°
